Le nostre stazioni meteo in Italia

Pubblicità
Il mio iltempo24.it
Pantelleria, Italia (16470): Temperatura & dewpoint: 17.01.2017 19:00:00 - 23.01.2017 19:00:00 (CET)Pantelleria, Italia (16470): velocità del vento: 17.01.2017 19:00:00 - 23.01.2017 19:00:00 (CET)Pantelleria, Italia (16470): direzione del vento: 17.01.2017 19:00:00 - 23.01.2017 19:00:00 (CET)Pantelleria, Italia (16470): reduced air pressure: 17.01.2017 19:00:00 - 23.01.2017 19:00:00 (CET)Pantelleria, Italia (16470): visibility: 17.01.2017 19:00:00 - 23.01.2017 19:00:00 (CET)Pantelleria, Italia (16470): ore di luce: 17.01.2017 19:00:00 - 23.01.2017 19:00:00 (CET)
Data & Tempo tt [°C] td [°C] ff [km/h] ff [kn] dd ppp [hPa] vv [km] sd [min]
23.01.2017 19:00:00 11,4 6,3 9 5 SE 1011,7 10 0
23.01.2017 18:00:00 12,4 6,4 9 5 S 1011,1 15 0
23.01.2017 17:00:00 13,2 7,0 15 8 S 1011,1 20 54
23.01.2017 16:00:00 14,0 6,8 18 10 S 1011,0 15 60
23.01.2017 15:00:00 14,0 5,6 21 11 S 1011,1 10 60
23.01.2017 14:00:00 14,2 5,0 21 11 S 1011,6 10 0
23.01.2017 13:00:00 15,0 6,3 21 11 S 1012,5 10 60
23.01.2017 12:00:00 14,8 6,4 18 10 S 1013,4 10 60
23.01.2017 11:00:00 14,4 7,2 18 10 S 1013,4 10 60
23.01.2017 10:00:00 13,2 7,2 13 7 S 1013,5 10 60
23.01.2017 09:00:00 11,6 6,1 9 5 S 1013,6 10 36
23.01.2017 08:00:00 10,0 4,8 8 4 S 1013,4 10 0
23.01.2017 07:00:00 8,4 4,4 9 5 SSO 1013,5 10 0
23.01.2017 06:00:00 - - - - - - - -
23.01.2017 05:00:00 - - - - - - - -
23.01.2017 04:00:00 - - - - - - - -
23.01.2017 03:00:00 - - - - - - - -
23.01.2017 02:00:00 - - - - - - - -
23.01.2017 01:00:00 - - - - - - - -
23.01.2017 00:00:00 - - - - - - - -
22.01.2017 23:00:00 - - - - - - - -
22.01.2017 22:00:00 - - - - - - - -
22.01.2017 21:00:00 - - - - - - - -
22.01.2017 20:00:00 - - - - - - - -
22.01.2017 19:00:00 10,0 6,4 15 8 S 1013,8 10 0
22.01.2017 18:00:00 10,8 6,9 13 7 S 1013,8 10 0
22.01.2017 17:00:00 13,0 7,7 13 7 S 1013,6 10 0
22.01.2017 16:00:00 13,2 7,9 11 6 SSO 1013,6 10 48
22.01.2017 15:00:00 13,2 7,9 11 6 S 1014,0 10 60
22.01.2017 14:00:00 14,0 9,4 13 7 SSO 1014,6 10 60
22.01.2017 13:00:00 14,0 9,4 16 9 S 1015,6 10 0
22.01.2017 12:00:00 15,0 10,4 16 9 SSO 1015,5 10 60
22.01.2017 11:00:00 14,2 6,5 4 2 ONO 1015,6 10 60
22.01.2017 10:00:00 13,0 6,8 5 3 E 1015,7 10 30
22.01.2017 09:00:00 10,0 4,0 0 0 N 1015,7 10 0
22.01.2017 08:00:00 10,2 6,0 9 5 SE 1014,9 10 0
22.01.2017 07:00:00 10,0 5,8 9 5 S 1014,9 10 0
22.01.2017 06:00:00 - - - - - - - -
22.01.2017 05:00:00 - - - - - - - -
22.01.2017 04:00:00 - - - - - - - -
22.01.2017 03:00:00 - - - - - - - -
22.01.2017 02:00:00 - - - - - - - -
22.01.2017 01:00:00 - - - - - - - -
22.01.2017 00:00:00 - - - - - - - -
21.01.2017 23:00:00 - - - - - - - -
21.01.2017 22:00:00 - - - - - - - -
21.01.2017 21:00:00 - - - - - - - -
21.01.2017 20:00:00 - - - - - - - -
21.01.2017 19:00:00 13,6 9,7 28 15 SSE 1013,6 2,0 0
21.01.2017 18:00:00 14,2 10,0 37 20 SSE 1012,6 3,0 0
21.01.2017 17:00:00 14,6 10,0 42 23 SSE 1012,6 4,0 6
21.01.2017 16:00:00 14,8 10,6 35 19 SSE 1012,6 4,0 6
21.01.2017 15:00:00 15,2 10,8 48 26 SE 1012,7 5 48
21.01.2017 14:00:00 15,0 10,8 55 30 SE 1012,9 6 36
21.01.2017 13:00:00 14,8 10,6 41 22 SE 1014,1 5 0
21.01.2017 12:00:00 14,8 10,6 54 29 SE 1014,6 5 0
21.01.2017 11:00:00 14,0 9,7 46 25 SE 1015,3 5 0
21.01.2017 10:00:00 14,2 9,0 48 26 ESE 1015,2 5 0
21.01.2017 09:00:00 14,0 9,0 44 24 ESE 1015,0 5 0
21.01.2017 08:00:00 14,0 9,0 54 29 ESE 1019,7 8 0
21.01.2017 07:00:00 14,0 9,0 59 32 ESE 1019,7 10 0
21.01.2017 06:00:00 - - - - - - - -
21.01.2017 05:00:00 - - - - - - - -
21.01.2017 04:00:00 - - - - - - - -
21.01.2017 03:00:00 - - - - - - - -
21.01.2017 02:00:00 - - - - - - - -
21.01.2017 01:00:00 - - - - - - - -
21.01.2017 00:00:00 - - - - - - - -
20.01.2017 23:00:00 - - - - - - - -
20.01.2017 22:00:00 - - - - - - - -
20.01.2017 21:00:00 - - - - - - - -
20.01.2017 20:00:00 - - - - - - - -
20.01.2017 19:00:00 12,8 8,9 41 22 E 1017,7 10 0
20.01.2017 18:00:00 13,0 9,1 39 21 E 1017,7 10 0
20.01.2017 17:00:00 13,0 9,1 42 23 E 1017,9 10 6
20.01.2017 16:00:00 13,2 9,3 44 24 E 1018,5 10 48
20.01.2017 15:00:00 13,2 9,3 37 20 E 1018,4 20 60
20.01.2017 14:00:00 13,4 8,5 44 24 E 1019,0 20 60
20.01.2017 13:00:00 13,8 9,3 31 17 E 1021,7 20 60
20.01.2017 12:00:00 13,6 7,8 31 17 E 1021,8 20 60
20.01.2017 11:00:00 13,0 7,2 29 16 E 1021,8 20 60
20.01.2017 10:00:00 12,4 7,1 35 19 E 1021,9 20 18
20.01.2017 09:00:00 10,6 6,0 37 20 E 1022,0 20 18
20.01.2017 08:00:00 10,4 5,8 16 9 E 1022,0 15 0
20.01.2017 07:00:00 8,8 4,8 5 3 SE 1022,2 10 0
20.01.2017 06:00:00 - - - - - - - -
20.01.2017 05:00:00 - - - - - - - -
20.01.2017 04:00:00 - - - - - - - -
20.01.2017 03:00:00 - - - - - - - -
20.01.2017 02:00:00 - - - - - - - -
20.01.2017 01:00:00 - - - - - - - -
20.01.2017 00:00:00 - - - - - - - -
19.01.2017 23:00:00 - - - - - - - -
19.01.2017 22:00:00 - - - - - - - -
19.01.2017 21:00:00 - - - - - - - -
19.01.2017 20:00:00 - - - - - - - -
19.01.2017 19:00:00 8,0 4,2 5 3 SE 1021,3 12 0
19.01.2017 18:00:00 9,0 4,8 0 0 N 1021,0 20 0
19.01.2017 17:00:00 10,6 5,6 5 3 SO 1020,4 20 60
19.01.2017 16:00:00 11,0 6,0 11 6 SO 1019,9 20 60
19.01.2017 15:00:00 11,2 6,5 11 6 SO 1019,0 10 60
19.01.2017 14:00:00 11,2 6,5 13 7 OSO 1019,1 10 60
19.01.2017 13:00:00 11,8 7,1 15 8 SO 1019,4 10 60
19.01.2017 12:00:00 11,8 7,1 13 7 SO 1019,4 10 60
19.01.2017 11:00:00 9,6 5,2 9 5 OSO 1019,6 10 48
19.01.2017 10:00:00 8,6 4,6 9 5 O 1019,0 10 18
19.01.2017 09:00:00 8,8 4,6 5 3 OSO 1018,8 10 0
19.01.2017 08:00:00 8,6 4,4 8 4 OSO 1017,9 10 0
19.01.2017 07:00:00 8,0 4,2 4 2 OSO 1017,7 10 0
19.01.2017 06:00:00 - - - - - - - -
19.01.2017 05:00:00 - - - - - - - -
19.01.2017 04:00:00 - - - - - - - -
19.01.2017 03:00:00 - - - - - - - -
19.01.2017 02:00:00 - - - - - - - -
19.01.2017 01:00:00 - - - - - - - -
19.01.2017 00:00:00 - - - - - - - -
18.01.2017 23:00:00 - - - - - - - -
18.01.2017 22:00:00 - - - - - - - -
18.01.2017 21:00:00 - - - - - - - -
18.01.2017 20:00:00 - - - - - - - -
18.01.2017 19:00:00 7,4 3,5 18 10 O 1012,4 10 0
18.01.2017 18:00:00 7,4 3,6 8 4 S 1011,8 8 0
18.01.2017 17:00:00 9,0 4,8 39 21 O 1010,9 10 24
18.01.2017 16:00:00 8,6 4,6 26 14 ONO 1010,2 15 0
18.01.2017 15:00:00 10,0 5,4 26 14 O 1009,1 15 42
18.01.2017 14:00:00 9,4 5,0 28 15 O 1008,4 10 48
18.01.2017 13:00:00 9,0 4,8 28 15 O 1008,0 10 60
18.01.2017 12:00:00 9,0 4,8 31 17 O 1007,9 10 18
18.01.2017 11:00:00 8,2 4,0 34 18 OSO 1007,6 10 6
18.01.2017 10:00:00 7,4 3,3 31 17 OSO 1007,0 10 0
18.01.2017 09:00:00 7,0 3,1 26 14 OSO 1006,2 10 0
18.01.2017 08:00:00 6,8 2,9 29 16 OSO 1005,0 9 0
18.01.2017 07:00:00 6,4 2,5 24 13 OSO 1004,7 6 0
18.01.2017 06:00:00 - - - - - - - -
18.01.2017 05:00:00 - - - - - - - -
18.01.2017 04:00:00 - - - - - - - -
18.01.2017 03:00:00 - - - - - - - -
18.01.2017 02:00:00 - - - - - - - -
18.01.2017 01:00:00 - - - - - - - -
18.01.2017 00:00:00 - - - - - - - -
17.01.2017 23:00:00 - - - - - - - -
17.01.2017 22:00:00 - - - - - - - -
17.01.2017 21:00:00 - - - - - - - -
17.01.2017 20:00:00 - - - - - - - -
17.01.2017 19:00:00 6,0 1,7 26 14 OSO 1004,1 10 0

tt = Temperatura
td = dewpoint
ff = velocità del vento
dd = direzione del vento
ppp = reduced air pressure
vv = visibility
sd = ore di luce

Stazioni seguenti

WeatherPro
AMSI
MeteoEarth